Location: Ballard
(38.3614°N, 94.1431°W)
Time: 10:54:27
(UTC-05:00)

OTV 5 (USA 277) - Visible Passes

Search period start: 15 October 2019 00:00
Search period end: 25 October 2019 00:00
Orbit: 310 x 324 km, 54.5° (Epoch: 08 October)

Date Brightness Start Highest point End Pass type
(mag) Time Alt. Az. Time Alt. Az. Time Alt. Az.
16 Oct ? 06:43:44 10° N 06:45:25 15° NNE 06:47:06 10° ENE visible
17 Oct ? 06:57:39 10° NNW 07:00:10 33° NE 07:02:40 10° ESE visible
18 Oct ? 05:39:38 10° NNE 05:40:06 11° NNE 05:40:49 10° NE visible
19 Oct ? 05:54:10 19° N 05:54:56 21° NE 05:57:07 10° E visible
20 Oct ? 06:08:48 38° NNW 06:09:35 57° NE 06:12:17 10° ESE visible
21 Oct ? 06:23:36 34° WSW 06:24:06 38° SW 06:26:40 10° SSE visible
22 Oct ? 06:38:32 13° SW 06:38:32 13° SW 06:39:49 10° SSW visible
